User: anonymous   Login
Location: Unspecified
(0.0000°N, 0.0000°E)
Time: 16:05:38
(UTC+02:00)
Language:

ARIANE 44L R/B - Orbit

View from above orbital plane
View from above orbital plane
View from above satellite
View from above satellite

Ground track
Ground track

The orbit data is extracted from the following two-line orbital elements,

1 26901U 01039B   17085.34182156 +.00002814 +00000-0 +72315-3 0  9998
2 26901 007.0325 167.5010 6890737 271.8535 017.1996 02.78124512141302
Epoch (UTC): 26 March 2017 08:12:13
Eccentricity: 0.6890737
inclination: 7.0325°
perigee height: 263 km
apogee height: 29698 km
right ascension of ascending node: 167.5010°
argument of perigee: 271.8535°
revolutions per day: 2.78124512
mean anomaly at epoch: 17.1996°
orbit number at epoch: 14130

The dashed part of the orbit path shows where the satellite is in the earth's shadow,  

DLR